ETNLEDNY

Guest
Details From ETNL - Laage
To EDNY - Friedrichshafen
Flight Number -
Tags Generated
Created
Modified
Stats Distance 390 nm / 722 km
Max Altitude 0 ft / 0 m
Waypoints 3
Social Downloads 1
Likes 0
Share VATSIM

Download

Looking for another format? Having issues loading an existing format? Contact us
Advertisement - Login to hide

Notes

Generated

Route

ETNL R1816 EDNY

ID Type Via Altitude Latitude Longitude Leg Dist Tot Dist Heading (true) Name
O ETNL APT - 0 ft / 0 m 53.91967˚ 12.26033˚ - 0 nm - -
R1816 FIX - 0 ft / 0 m 47.66725˚ 9.50100˚ 389 nm 389 nm 197° / 195° -
O EDNY APT - 0 ft / 0 m 47.66604˚ 9.49789˚ 0 nm 389 nm 240° / 240° -

Altitude Profile

Advertisement - Login to hide

Weather


0- 5 10 15 20 25 30 35+ Temperature / ° C

Clouds and Precipitation
Forecast for 2018-05-23 00:00 UTC. Updated 2 hours ago

Ground ~20,000 ft ~40,000 ft Winds

ETNL

Details ICAO ETNL (RLG)
Name Laage
Region Germany - Military
Timezone Europe/Berlin (UTC+2.0)
Stats Elevation 138 ft / 42 m (AMSL)
Location 53.918084° 12.279250°
Runways 1
Magnetic Variation 3.580° E

METAR

ETNL 230120Z 05004KT 9999 FEW300 10/08 Q1020 BLU+

Decode

TAF

Not found

Departure Runways

ID Width Length Bearing (true) Bearing (mag) Surface Threshold Offset Overrun Length
10 148 ft / 45 m 8,213 ft / 2,503 m 98.07° 94.49° Concrete 0 ft / 0 m 1,001 ft / 305 m
28 148 ft / 45 m 8,213 ft / 2,503 m 278.10° 274.52° Concrete 0 ft / 0 m 1,001 ft / 305 m

EDNY

Details ICAO EDNY (FDH)
Name Friedrichshafen
Region Germany - Civil
Timezone Europe/Berlin (UTC+2.0)
Stats Elevation 1,367 ft / 417 m (AMSL)
Location 47.670891° 9.508175°
Runways 2
Magnetic Variation 2.639° E

METAR

EDNY 230120Z AUTO 26004KT 9999 // OVC091/// 15/12 Q1015

Decode

TAF

TAF EDNY 222300Z 2300/2324 VRB03KT 9999 SCT050 PROB30 TEMPO 2300/2308 RA BKN013 BECMG 2309/2311 23005KT PROB30 TEMPO 2312/2321 TSRA BKN040CB BECMG 2316/2318 VRB03KT PROB30 TEMPO 2321/2324 SHRA BKN030CB

Decode

Destination Runways

ID Width Length Bearing (true) Bearing (mag) Surface Threshold Offset Overrun Length
06 148 ft / 45 m 7,738 ft / 2,359 m 60.02° 57.38° Asphalt 869 ft / 265 m 0 ft / 0 m
06L 92 ft / 28 m 3,167 ft / 965 m 60.04° 57.40° Grass 0 ft / 0 m 0 ft / 0 m
24 148 ft / 45 m 7,738 ft / 2,359 m 240.04° 237.40° Asphalt 676 ft / 206 m 89 ft / 27 m
24R 92 ft / 28 m 3,167 ft / 965 m 240.04° 237.40° Grass 0 ft / 0 m 0 ft / 0 m

Approach Navaids

Runway Type Ident Frequency Range Bearing (true) Bearing (mag) Slope Elevation
06 Localiser IFHE 111.90 MHz 18 nm / 33 km 60.06° 57.42° - 1,366 ft / 416 m (AMSL)
06 Glidescope IFHE 111.90 MHz 10 nm / 19 km 60.03° 57.39° 3.10° 1,367 ft / 417 m (AMSL)
24 Localiser IFHW 111.90 MHz 18 nm / 33 km 240.03° 237.40° - 1,333 ft / 406 m (AMSL)
24 Glidescope IFHW 111.90 MHz 10 nm / 19 km 240.03° 237.39° 3.00° 1,367 ft / 417 m (AMSL)

Popular Alternatives